Weather History for KDBN - October, 2010

Change the Weather History Date:

Monday, October 11, 2010

  Actual Average Record
Temperature  
Mean Temperature 70 °F -  
Max Temperature 87 °F 80 °F 93 °F (1982)
Min Temperature 53 °F 53 °F 39 °F (1971)
Cooling Degree Days 5    
Growing Degree Days 20 (Base 50)    
Moisture  
Dew Point 57 °F    
Average Humidity 74    
Maximum Humidity 100    
Minimum Humidity 31    
Precipitation  
Precipitation 0.00 in - - ()
Sea Level Pressure  
Sea Level Pressure 29.96 in    
Wind  
Wind Speed 1 mph (SW)    
Max Wind Speed 8 mph    
Max Gust Speed -    
Visibility 9 miles    
Events      
Averages and records for this station are not official NWS values.
T = Trace of Precipitation, MM = Missing Value Source: NWS Daily Summary

Daily Weather History Graph

Daily Weather History Graph

Search for Another Location

Airport or City:

Trip Planner

Search our weather history database for the weather conditions in past years. The results will help you decide how hot, cold, wet, or windy it might be!

Date:

Astronomy

Oct. 11, 2010 Rise Set
Actual Time 7:32 AM EDT 7:03 PM EDT
Civil Twilight 7:08 AM EDT 7:28 PM EDT
Nautical Twilight 6:39 AM EDT 7:57 PM EDT
Astronomical Twilight 6:11 AM EDT 8:25 PM EDT
Moon 11:50 AM EDT (10/11) 9:58 PM EDT (10/11)
Length of Visible Light 12h 20m
Length of Day
11h 31m
Waxing Crescent, 19% of the Moon is Illuminated
Oct 11
Waxing Crescent
Oct 14
First Quarter
Oct 22
Full
Oct 30
Last Quarter
Nov 6
New

Hourly Weather History & Observations

Time (EDT) Temp. Heat Index Dew Point Humidity Pressure Visibility Wind Dir Wind Speed Gust Speed Precip Events Conditions
12:13 AM 57.2 °F - 57.2 °F 100% 29.97 in 10.0 mi Calm Calm - N/A   Clear
12:35 AM 55.4 °F - 55.4 °F 100% 29.97 in 10.0 mi Calm Calm - N/A   Clear
12:53 AM 57.2 °F - 57.2 °F 100% 29.97 in 10.0 mi Calm Calm - N/A   Clear
1:15 AM 57.2 °F - 57.2 °F 100% 29.97 in 10.0 mi Calm Calm - N/A   Clear
1:35 AM 55.4 °F - 55.4 °F 100% 29.97 in 10.0 mi Calm Calm - N/A   Clear
1:53 AM 55.4 °F - 55.4 °F 100% 29.97 in 7.0 mi Calm Calm - N/A   Clear
2:15 AM 55.4 °F - 55.4 °F 100% 29.97 in 7.0 mi Calm Calm - N/A   Clear
2:35 AM 55.4 °F - 55.4 °F 100% 29.97 in 7.0 mi Calm Calm - N/A   Clear
2:55 AM 53.6 °F - 53.6 °F 100% 29.97 in 7.0 mi Calm Calm - N/A   Clear
3:15 AM 53.6 °F - 53.6 °F 100% 29.96 in 10.0 mi Calm Calm - N/A   Clear
3:34 AM 55.4 °F - 55.4 °F 100% 29.96 in 7.0 mi Calm Calm - N/A   Clear
3:55 AM 53.6 °F - 53.6 °F 100% 29.96 in 7.0 mi Calm Calm - N/A   Clear
4:15 AM 53.6 °F - 53.6 °F 100% 29.95 in 7.0 mi Calm Calm - N/A   Clear
4:35 AM 55.4 °F - 55.4 °F 100% 29.95 in 7.0 mi Calm Calm - N/A   Clear
4:54 AM 55.4 °F - 55.4 °F 100% 29.96 in 7.0 mi Calm Calm - N/A   Clear
5:17 AM 53.6 °F - 53.6 °F 100% 29.96 in 5.0 mi South 3.5 mph - N/A   Clear
5:33 AM 55.4 °F - 55.4 °F 100% 29.96 in 7.0 mi SSW 4.6 mph - N/A   Clear
5:54 AM 55.4 °F - 55.4 °F 100% 29.96 in 10.0 mi Calm Calm - N/A   Clear
6:15 AM 53.6 °F - 53.6 °F 100% 29.96 in 7.0 mi Calm Calm - N/A   Clear
6:36 AM 55.4 °F - 55.4 °F 100% 29.97 in 7.0 mi Calm Calm - N/A   Clear
6:55 AM 53.6 °F - 53.6 °F 100% 29.97 in 7.0 mi Calm Calm - N/A   Clear
7:14 AM 55.4 °F - 55.4 °F 100% 29.97 in 7.0 mi Calm Calm - N/A   Clear
7:36 AM 55.4 °F - 55.4 °F 100% 29.97 in 4.0 mi Calm Calm - N/A   Clear
7:54 AM 53.6 °F - 53.6 °F 100% 29.98 in 3.0 mi Calm Calm - N/A   Clear
8:14 AM 59.0 °F - 59.0 °F 100% 29.98 in 5.0 mi Calm Calm - N/A   Clear
8:35 AM 62.6 °F - 62.6 °F 100% 29.99 in 7.0 mi Calm Calm - N/A   Clear
8:54 AM 64.4 °F - 64.4 °F 100% 30.00 in 7.0 mi WSW 3.5 mph - N/A   Clear
9:16 AM 66.2 °F - 64.4 °F 94% 30.00 in 10.0 mi WSW 4.6 mph - N/A   Clear
9:35 AM 69.8 °F - 64.4 °F 83% 30.00 in 10.0 mi WSW 5.8 mph - N/A   Clear
9:56 AM 71.6 °F - 62.6 °F 73% 30.00 in 10.0 mi WSW 4.6 mph - N/A   Clear
10:15 AM 73.4 °F - 62.6 °F 69% 30.00 in 10.0 mi Calm Calm - N/A   Clear
10:35 AM 75.2 °F - 62.6 °F 65% 30.00 in 10.0 mi SSW 3.5 mph - N/A   Clear
10:56 AM 77.0 °F - 62.6 °F 61% 30.00 in 10.0 mi Calm Calm - N/A   Clear
11:15 AM 78.8 °F - 62.6 °F 57% 29.99 in 10.0 mi SSW 3.5 mph - N/A   Clear
11:35 AM 80.6 °F 81.8 °F 62.6 °F 54% 29.99 in 10.0 mi SSW 3.5 mph - N/A   Clear
11:54 AM 82.4 °F 83.4 °F 62.6 °F 51% 29.99 in 10.0 mi Calm Calm - N/A   Clear
12:15 PM 84.2 °F 85.0 °F 62.6 °F 48% 29.98 in 10.0 mi WSW 3.5 mph - N/A   Clear
12:35 PM 84.2 °F 85.0 °F 62.6 °F 48% 29.98 in 10.0 mi SSW 4.6 mph - N/A   Clear
12:55 PM 86.0 °F 86.1 °F 60.8 °F 43% 29.97 in 10.0 mi SW 4.6 mph - N/A   Clear
1:15 PM 87.8 °F 87.1 °F 59.0 °F 38% 29.96 in 10.0 mi SW 4.6 mph - N/A   Clear
1:35 PM 87.8 °F 86.5 °F 57.2 °F 35% 29.95 in 10.0 mi SSW 4.6 mph - N/A   Clear
1:55 PM 87.8 °F 85.7 °F 53.6 °F 31% 29.94 in 10.0 mi SW 3.5 mph - N/A   Scattered Clouds
2:15 PM 87.8 °F 85.7 °F 53.6 °F 31% 29.93 in 10.0 mi South 3.5 mph - N/A   Clear
2:35 PM 87.8 °F 85.7 °F 53.6 °F 31% 29.92 in 10.0 mi SW 3.5 mph - N/A   Clear
2:55 PM 87.8 °F 85.7 °F 53.6 °F 31% 29.92 in 10.0 mi West 5.8 mph - N/A   Clear
3:15 PM 87.8 °F 85.7 °F 53.6 °F 31% 29.91 in 10.0 mi WSW 5.8 mph - N/A   Clear
3:33 PM 87.8 °F 86.1 °F 55.4 °F 33% 29.91 in 10.0 mi SW 5.8 mph - N/A   Clear
3:55 PM 87.8 °F 86.1 °F 55.4 °F 33% 29.91 in 10.0 mi WSW 4.6 mph - N/A   Scattered Clouds
4:15 PM 87.8 °F 86.1 °F 55.4 °F 33% 29.91 in 10.0 mi WSW 8.1 mph - N/A   Scattered Clouds
4:33 PM 87.8 °F 86.1 °F 55.4 °F 33% 29.91 in 10.0 mi West 8.1 mph - N/A   Scattered Clouds
4:53 PM 87.8 °F 86.1 °F 55.4 °F 33% 29.91 in 10.0 mi West 3.5 mph - N/A   Scattered Clouds
5:15 PM 86.0 °F 84.5 °F 55.4 °F 35% 29.91 in 10.0 mi West 5.8 mph - N/A   Scattered Clouds
5:35 PM 84.2 °F 83.0 °F 55.4 °F 37% 29.91 in 10.0 mi WSW 4.6 mph - N/A   Clear
5:55 PM 84.2 °F 83.0 °F 55.4 °F 37% 29.91 in 10.0 mi SW 3.5 mph - N/A   Clear
6:15 PM 82.4 °F 82.0 °F 57.2 °F 42% 29.91 in 10.0 mi Calm Calm - N/A   Clear
6:35 PM 80.6 °F 80.8 °F 57.2 °F 45% 29.92 in 10.0 mi SW 3.5 mph - N/A   Clear
6:55 PM 73.4 °F - 62.6 °F 69% 29.92 in 10.0 mi Calm Calm - N/A   Clear
7:15 PM 69.8 °F - 60.8 °F 73% 29.92 in 10.0 mi Calm Calm - N/A   Clear
7:35 PM 66.2 °F - 60.8 °F 83% 29.92 in 10.0 mi Calm Calm - N/A   Clear
7:56 PM 64.4 °F - 62.6 °F 94% 29.93 in 10.0 mi Calm Calm - N/A   Clear
8:14 PM 64.4 °F - 62.6 °F 94% 29.93 in 10.0 mi Calm Calm - N/A   Clear
8:35 PM 62.6 °F - 62.6 °F 100% 29.94 in 10.0 mi Calm Calm - N/A   Clear
8:55 PM 64.4 °F - 62.6 °F 94% 29.94 in 10.0 mi Calm Calm - N/A   Clear
9:15 PM 62.6 °F - 62.6 °F 100% 29.94 in 10.0 mi Calm Calm - N/A   Clear
9:35 PM 62.6 °F - 62.6 °F 100% 29.94 in 10.0 mi Calm Calm - N/A   Clear
9:55 PM 62.6 °F - 60.8 °F 94% 29.95 in 10.0 mi Calm Calm - N/A   Clear
10:15 PM 60.8 °F - 60.8 °F 100% 29.96 in 10.0 mi Calm Calm - N/A   Clear
10:35 PM 60.8 °F - 60.8 °F 100% 29.96 in 7.0 mi Calm Calm - N/A   Clear
10:55 PM 60.8 °F - 60.8 °F 100% 29.96 in 10.0 mi Calm Calm - N/A   Clear
11:15 PM 64.4 °F - 60.8 °F 88% 29.96 in 10.0 mi West 3.5 mph - N/A   Clear
11:36 PM 64.4 °F - 57.2 °F 77% 29.96 in 10.0 mi West 3.5 mph - N/A   Clear
11:55 PM 64.4 °F - 57.2 °F 77% 29.96 in 10.0 mi South 3.5 mph - N/A   Clear